| time (UTC) | temp F | wind direction | speed MPH | gust MPH | rain 1hr in | rain 24hr in | rain mn in | humidity % | barometer mb |
| 20260504110311 | 50 | 323 | 0.0 | 0.0 | 0.00 | 0.00 | 0.00 | 73 | 1014.4 |
| 20260504100317 | 52 | 345 | 5.0 | 8.0 | 0.00 | 0.00 | 0.00 | 73 | 1014.2 |
| 20260504081331 | 52 | 345 | 2.0 | 5.0 | 0.00 | 0.00 | 0.00 | 75 | 1014.5 |
| 20260504080312 | 52 | 345 | 1.0 | 4.0 | 0.00 | 0.00 | 0.00 | 75 | 1014.7 |
| 20260504070323 | 52 | 345 | 5.0 | 9.0 | 0.00 | 0.00 | 0.00 | 76 | 1014.6 |
| 20260504050324 | 53 | 345 | 2.0 | 8.0 | 0.00 | 0.00 | 0.00 | 78 | 1014.3 |
| 20260504045330 | 53 | 345 | 2.0 | 8.0 | 0.00 | 0.00 | 0.00 | 78 | 1014.1 |
| 20260504044341 | 53 | 345 | 3.0 | 6.0 | 0.00 | 0.00 | 0.00 | 78 | 1014.1 |
| 20260504043325 | 53 | 345 | 4.0 | 8.0 | 0.00 | 0.00 | 0.00 | 78 | 1014.0 |
| 20260504042330 | 53 | 345 | 3.0 | 6.0 | 0.00 | 0.00 | 0.00 | 78 | 1013.9 |
| 20260504041319 | 53 | 345 | 2.0 | 8.0 | 0.00 | 0.00 | 0.00 | 78 | 1014.0 |
| 20260504040316 | 53 | 308 | 2.0 | 8.0 | 0.00 | 0.00 | 0.00 | 78 | 1013.9 |
| 20260504035324 | 53 | 345 | 2.0 | 4.0 | 0.00 | 0.00 | 0.00 | 78 | 1013.8 |
| 20260504034352 | 54 | 285 | 1.0 | 6.0 | 0.00 | 0.00 | 0.00 | 78 | 1013.7 |
| 20260504033341 | 54 | 345 | 2.0 | 7.0 | 0.00 | 0.00 | 0.00 | 78 | 1013.5 |
| 20260504032350 | 54 | 345 | 3.0 | 9.0 | 0.00 | 0.00 | 0.00 | 78 | 1013.6 |
| 20260504031319 | 55 | 345 | 5.0 | 9.0 | 0.00 | 0.00 | 0.00 | 77 | 1013.4 |
| 20260504030345 | 55 | 345 | 7.0 | 10.0 | 0.00 | 0.00 | 0.00 | 77 | 1013.3 |
| 20260504025349 | 55 | 345 | 5.0 | 11.0 | 0.00 | 0.00 | 0.00 | 76 | 1013.2 |
| 20260504024331 | 56 | 345 | 4.0 | 11.0 | 0.00 | 0.00 | 0.00 | 76 | 1013.1 |
| 20260504023313 | 56 | 345 | 6.0 | 11.0 | 0.00 | 0.00 | 0.00 | 74 | 1012.9 |
| 20260504022323 | 57 | 303 | 6.0 | 12.0 | 0.00 | 0.00 | 0.00 | 73 | 1012.9 |
| 20260504021320 | 58 | 239 | 6.0 | 14.0 | 0.00 | 0.00 | 0.00 | 72 | 1012.9 |
| 20260504020347 | 58 | 251 | 5.0 | 11.0 | 0.00 | 0.00 | 0.00 | 72 | 1012.8 |
| 20260504015316 | 58 | 283 | 7.0 | 14.0 | 0.00 | 0.00 | 0.00 | 72 | 1012.8 |
| 20260504014327 | 59 | 287 | 6.0 | 11.0 | 0.00 | 0.00 | 0.00 | 71 | 1012.8 |
| 20260504013312 | 59 | 280 | 6.0 | 14.0 | 0.00 | 0.00 | 0.00 | 71 | 1012.8 |
| 20260504012314 | 58 | 260 | 8.0 | 13.0 | 0.00 | 0.00 | 0.00 | 71 | 1012.8 |
| 20260504011324 | 59 | 256 | 8.0 | 13.0 | 0.00 | 0.00 | 0.00 | 70 | 1012.8 |
| 20260504010328 | 60 | 331 | 9.0 | 14.0 | 0.00 | 0.00 | 0.00 | 68 | 1012.9 |
| 20260504005318 | 60 | 275 | 7.0 | 13.0 | 0.00 | 0.00 | 0.00 | 69 | 1013.0 |
| 20260504004323 | 60 | 280 | 6.0 | 13.0 | 0.00 | 0.00 | 0.00 | 69 | 1013.0 |
| 20260504003313 | 60 | 256 | 7.0 | 12.0 | 0.00 | 0.00 | 0.00 | 69 | 1012.8 |
| 20260504002347 | 60 | 260 | 6.0 | 12.0 | 0.00 | 0.00 | 0.00 | 69 | 1012.9 |
| 20260504001348 | 60 | 264 | 7.0 | 13.0 | 0.00 | 0.00 | 0.00 | 68 | 1012.7 |
| 20260504000317 | 60 | 246 | 8.0 | 15.0 | 0.00 | 0.00 | 0.00 | 66 | 1012.8 |
| 20260503235327 | 60 | 259 | 10.0 | 15.0 | 0.00 | 0.00 | 0.00 | 66 | 1012.7 |
| 20260503234332 | 60 | 266 | 10.0 | 15.0 | 0.00 | 0.00 | 0.00 | 65 | 1012.5 |
| 20260503233320 | 60 | 287 | 9.0 | 16.0 | 0.00 | 0.00 | 0.00 | 64 | 1012.5 |
| 20260503232334 | 61 | 279 | 8.0 | 14.0 | 0.00 | 0.00 | 0.00 | 63 | 1012.6 |
| 20260503231352 | 61 | 155 | 7.0 | 13.0 | 0.00 | 0.00 | 0.00 | 62 | 1012.6 |
| 20260503230316 | 61 | 241 | 5.0 | 15.0 | 0.00 | 0.00 | 0.00 | 63 | 1012.6 |
| 20260503225319 | 61 | 248 | 6.0 | 11.0 | 0.00 | 0.00 | 0.00 | 64 | 1012.4 |
| 20260503224321 | 61 | 274 | 8.0 | 11.0 | 0.00 | 0.00 | 0.00 | 64 | 1012.6 |
| 20260503223326 | 61 | 242 | 6.0 | 12.0 | 0.00 | 0.00 | 0.00 | 66 | 1012.6 |
| 20260503222329 | 61 | 286 | 7.0 | 12.0 | 0.00 | 0.00 | 0.00 | 66 | 1012.6 |
| 20260503221318 | 61 | 244 | 6.0 | 12.0 | 0.00 | 0.00 | 0.00 | 67 | 1012.6 |
| 20260503220342 | 61 | 274 | 5.0 | 9.0 | 0.00 | 0.00 | 0.00 | 66 | 1012.8 |
| 20260503215334 | 61 | 298 | 5.0 | 11.0 | 0.00 | 0.00 | 0.00 | 65 | 1012.9 |
| 20260503214325 | 60 | 252 | 5.0 | 11.0 | 0.00 | 0.00 | 0.00 | 65 | 1012.8 |
| 20260503213328 | 60 | 324 | 6.0 | 13.0 | 0.00 | 0.00 | 0.00 | 67 | 1012.6 |
| 20260503212318 | 61 | 264 | 6.0 | 10.0 | 0.00 | 0.00 | 0.00 | 64 | 1012.7 |
| 20260503211322 | 60 | 292 | 4.0 | 10.0 | 0.00 | 0.00 | 0.00 | 67 | 1012.7 |
| 20260503210327 | 60 | 254 | 4.0 | 12.0 | 0.00 | 0.00 | 0.00 | 68 | 1012.8 |
| 20260503205319 | 60 | 320 | 4.0 | 12.0 | 0.00 | 0.00 | 0.00 | 68 | 1012.7 |
| 20260503204327 | 60 | 267 | 7.0 | 12.0 | 0.00 | 0.00 | 0.00 | 67 | 1012.6 |
| 20260503203345 | 60 | 241 | 6.0 | 11.0 | 0.00 | 0.00 | 0.00 | 66 | 1012.6 |
| 20260503202340 | 60 | 292 | 7.0 | 12.0 | 0.00 | 0.00 | 0.00 | 66 | 1012.7 |
| 20260503201320 | 60 | 260 | 6.0 | 9.0 | 0.00 | 0.00 | 0.00 | 66 | 1012.8 |
| 20260503200348 | 60 | 335 | 4.0 | 12.0 | 0.00 | 0.00 | 0.00 | 67 | 1012.9 |
| 20260503195319 | 59 | 244 | 8.0 | 12.0 | 0.00 | 0.00 | 0.00 | 67 | 1012.9 |
| 20260503194323 | 59 | 305 | 4.0 | 9.0 | 0.00 | 0.00 | 0.00 | 67 | 1013.1 |
| 20260503193316 | 59 | 255 | 5.0 | 11.0 | 0.00 | 0.00 | 0.00 | 67 | 1013.1 |
| 20260503192357 | 59 | 264 | 7.0 | 11.0 | 0.00 | 0.00 | 0.00 | 68 | 1013.2 |
| 20260503191318 | 59 | 261 | 2.0 | 10.0 | 0.00 | 0.00 | 0.00 | 68 | 1013.1 |
| 20260503190353 | 59 | 259 | 5.0 | 11.0 | 0.00 | 0.00 | 0.00 | 68 | 1013.1 |
| 20260503185339 | 59 | 254 | 6.0 | 12.0 | 0.00 | 0.00 | 0.00 | 65 | 1013.1 |
| 20260503184330 | 59 | 249 | 7.0 | 15.0 | 0.00 | 0.00 | 0.00 | 66 | 1013.1 |
| 20260503183348 | 59 | 256 | 5.0 | 12.0 | 0.00 | 0.00 | 0.00 | 66 | 1013.0 |
| 20260503182334 | 59 | 252 | 5.0 | 11.0 | 0.00 | 0.00 | 0.00 | 68 | 1012.9 |
| 20260503181339 | 58 | 266 | 6.0 | 10.0 | 0.00 | 0.00 | 0.00 | 67 | 1012.8 |
| 20260503180320 | 57 | 243 | 5.0 | 12.0 | 0.00 | 0.00 | 0.00 | 70 | 1013.0 |
| 20260503175349 | 58 | 260 | 5.0 | 11.0 | 0.00 | 0.00 | 0.00 | 70 | 1013.0 |
| 20260503174314 | 57 | 274 | 6.0 | 12.0 | 0.00 | 0.00 | 0.00 | 70 | 1013.0 |
| 20260503173336 | 57 | 280 | 5.0 | 10.0 | 0.00 | 0.00 | 0.00 | 70 | 1013.0 |
| 20260503172331 | 57 | 246 | 5.0 | 9.0 | 0.00 | 0.00 | 0.00 | 70 | 1013.1 |
| 20260503171329 | 56 | 287 | 2.0 | 6.0 | 0.00 | 0.00 | 0.00 | 71 | 1013.0 |
| 20260503170335 | 56 | 265 | 2.0 | 9.0 | 0.00 | 0.00 | 0.00 | 71 | 1013.0 |
| 20260503150315 | 53 | 256 | 2.0 | 5.0 | 0.00 | 0.00 | 0.00 | 73 | 1012.4 |
| 20260503131348 | 52 | 264 | 0.0 | 3.0 | 0.00 | 0.00 | 0.00 | 77 | 1011.0 |
| 20260503130325 | 52 | 345 | 0.0 | 5.0 | 0.00 | 0.00 | 0.00 | 77 | 1010.8 |